Terminal Aerodrome Forecast
Issued by NWS

Home | Current Version | Previous Version | Graphics & Text | Print | Product List | Glossary On
Versions: 1 2 3 4 5 6 7 8 9 10 11 12 13 14 15 16 17 18 19 20 21 22 23
138
FTUS42 KMHX 011531 AAA
TAFPGV
TAF AMD
KPGV 011531Z 0116/0212 19010KT P6SM SCT025 BKN040
      TEMPO 0116/0118 3SM SHRA BKN030
     FM011800 20011G18KT P6SM VCTS BKN040CB
     FM012200 20010KT P6SM BKN040
     FM020600 20007KT P6SM VCSH SCT007 OVC030
      AMD LTD TO CLD VIS AND WIND=

USA.gov is the U.S. government's official web portal to all federal, state and local government web resources and services.